Flag for U.S.A. Weather past 2 weeks in Hayward, California, U.S.A.

Now
75 °F

Sunny.


Feels Like: 77 °F
Forecast: 61 / 77 °F
Wind: 9 mph from West

Location: Hayward Air Terminal

Current Time: Sep 23, 2014 at 2:00:00 PM

Latest Report: Sep 23, 2014 at 12:54 PM


Visibility: 10 mi

Pressure: 30.01 "Hg

Humidity: 60%

Dew point: 60 °F

Location of HaywardLocation

Historic Weather in Hayward — Graph

°F

Hayward temperature yesterday

Maximum temperature yesterday: 77 °F (at 1:54 PM)
Minimum temperature yesterday: 65 °F (at 11:54 PM)
Average temperature yesterday: 70 °F

Past Weeks' High & Low Weather Summary

 TemperatureHumidityPressure
High86 °F (Sep 10, 3:54 PM)100% (Sep 11, 6:54 AM)30.07 "Hg (Sep 11, 6:54 AM)
Low58 °F (Sep 10, 5:54 AM)36% (Sep 10, 2:54 PM)29.77 "Hg (Sep 17, 6:54 PM)
Average69 °F75%29.91 "Hg
* Reported Sep 8 12:54 PM — Sep 23 12:54 PM, Hayward, Weather by CustomWeather, © 2014

Note: Actual official high and low records may vary slightly from our data, if they occured in-between our weather recording intervals... More about our weather records

Advertising

Hayward weather history for previous 24 hours

 ConditionsComfort  
Time TempWeatherWind HumidityBarometerVisibility
12:54 PM
Sep 23
75 °FSunny.9 mph60%30.01 "Hg10 mi
11:54 AM72 °FSunny.6 mph66%30.03 "Hg10 mi
10:54 AM72 °FPassing clouds.6 mph68%30.04 "Hg10 mi
9:54 AM69 °FPartly sunny.3 mph76%30.04 "Hg10 mi
8:54 AM68 °FOvercast.5 mph78%30.03 "Hg10 mi
7:54 AM67 °FOvercast.No wind81%30.02 "Hg10 mi
6:54 AM66 °FOvercast.No wind84%30.01 "Hg10 mi
5:54 AM66 °FOvercast.3 mph84%30.00 "Hg10 mi
4:54 AM66 °FOvercast.No wind84%29.99 "Hg10 mi
3:54 AM66 °FOvercast.No wind87%29.99 "Hg10 mi
2:54 AM66 °FPassing clouds.No wind84%30.00 "Hg10 mi
1:54 AM66 °FPassing clouds.8 mph84%30.01 "Hg10 mi
12:54 AM65 °FPassing clouds.3 mph87%30.01 "Hg10 mi
11:54 PM
Sep 22
65 °FClear.3 mph87%30.00 "Hg10 mi
10:54 PM66 °FClear.10 mph84%30.01 "Hg10 mi
9:54 PM67 °FClear.No wind81%29.99 "Hg10 mi
8:54 PM67 °FClear.5 mph81%30.00 "Hg10 mi
7:54 PM68 °FSunny.8 mph78%29.99 "Hg10 mi
6:54 PM70 °FSunny.13 mph71%29.99 "Hg10 mi
5:54 PM73 °FSunny.14 mph59%29.98 "Hg10 mi
4:54 PM74 °FSunny.10 mph57%29.99 "Hg10 mi
3:54 PM76 °FSunny.18 mph54%30.00 "Hg10 mi
2:54 PM77 °FSunny.14 mph54%30.00 "Hg10 mi
Weather by CustomWeather, © 2014

See weather overviewHow to use our weather pages